Overview Statistics Trail Chart Weather Telemetry Raw packets
 

This is the latest recevied weather packets stored in our database for station/object SQ9RHX-11. If no packets are shown the sender has not sent any weather packets the latest 10 day(s).

<< 1 2 3 4 5 6 7 >>
Time Temp. Humidity Pressure Rain* Wind** Luminosity Snow
1788359861 23.33° C 46% 1021 hPa - - - -
1788358061 25° C 44% 1021 hPa - - - -
1788356262 23.89° C 44% 1021 hPa - - - -
1788354462 26.11° C 40% 1021.1 hPa - - - -
1788352662 29.44° C 36% 1021.3 hPa - - - -
1788350861 27.22° C 40% 1021.7 hPa - - - -
1788349061 30° C 35% 1022.1 hPa - - - -
1788347262 28.89° C 38% 1022.2 hPa - - - -
1788345462 30° C 39% 1022.5 hPa - - - -
1788343662 22.78° C 49% 1022.6 hPa - - - -
1788341864 25.56° C 44% 1022.7 hPa - - - -
1788340065 27.78° C 49% 1023 hPa - - - -
1788338265 24.44° C 57% 1023 hPa - - - -
1788336465 20.56° C 66% 1023.2 hPa - - - -
1788334666 20° C 70% 1023 hPa - - - -
1788332865 18.33° C 75% 1022.7 hPa - - - -
1788331066 17.78° C 82% 1022.4 hPa - - - -
1788329265 15° C 84% 1022.4 hPa - - - -
1788325666 13.89° C 84% 1022.2 hPa - - - -
1788323866 13.33° C 83% 1021.8 hPa - - - -
1788322067 13.33° C 82% 1021.8 hPa - - - -
1788320267 13.33° C 83% 1021.7 hPa - - - -
1788318467 12.78° C 83% 1021.8 hPa - - - -
1788316666 12.22° C 84% 1021.7 hPa - - - -
1788314867 11.67° C 83% 1021.6 hPa - - - -

* Rain since midnight (hover to see other rain measurements)
** Current wind speed in m/s (hover to see current wind gust speed)